Regional Weather Roundup
Issued by NWS

Home | Current Version | Previous Version | Text Only | Print | Product List | Glossary Off
Versions: 1 2 3 4 5 6 7 8 9 10 11 12 13 14 15 16 17 18 19 20 21 22 23 24 25 26 27 28 29 30 31 32 33 34 35 36 37 38 39 40 41 42 43 44 45 46 47 48 49 50

000
ASUS43 KMKX 010111
RWRWI

WISCONSIN REGIONAL WEATHER ROUNDUP
NATIONAL WEATHER SERVICE MILWAUKEE/SULLIVAN WI
800 PM CDT SAT APR 30 2016

NOTE: "FAIR" INDICATES FEW OR NO CLOUDS BELOW 12,000 FEET WITH NO
SIGNIFICANT WEATHER AND/OR OBSTRUCTIONS TO VISIBILITY.

WIZ001-002-006>008-014>016-023>028-010200-
NORTHWEST WISCONSIN

CITY           SKY/WX    TMP DP  RH WIND       PRES   REMARKS
SUPERIOR ARPT  MOCLDY    40  32  73 NE13G25   30.24S WCI  33
ASHLAND        CLEAR     40  32  73 NE10      30.23S WCI  33
HAYWARD        CLOUDY    43  29  57 NE21      30.17R
SIREN          CLOUDY    47  26  43 NE15G23   30.15R
CUMBERLAND     CLOUDY    45  28  53 NE20      30.10R
RICE LAKE      CLOUDY    48  31  51 N20G25    30.10R
CHETEK         CLOUDY    49  33  53 NE12      30.08R
LADYSMITH      CLOUDY    50  34  53 N14       30.10S
EAU CLAIRE     CLOUDY    54  34  46 E6        30.05R
MENOMONIE      CLOUDY    54  36  51 NE7       30.06R
NEW RICHMOND   CLOUDY    50  30  47 NE18G25   30.08R
OSCEOLA        CLOUDY    50  31  48 N15G21    30.12R
$$

WIZ003>005-009-010-017-018-010200-
NORTH CENTRAL WISCONSIN

CITY           SKY/WX    TMP DP  RH WIND       PRES   REMARKS
MANITOWISH WTR MOCLDY    45  30  55 NE9       30.15R
ARBOR VITAE    CLOUDY    49  32  51 NE12G21   30.14R
WOODRUFF       CLOUDY    49  32  51 NE12G21   30.14R
RHINELANDER    CLOUDY    51  31  46 E12       30.12R
EAGLE RIVER    CLOUDY    46  31  54 NE18      30.14R
LAND O LAKES   MOCLDY    44  30  58 NE13      30.17R
PHILLIPS       CLOUDY    49  34  54 NE14G20   30.11R
TOMAHAWK       CLOUDY    51  31  46 NE8       30.11R
MEDFORD        CLOUDY    50  35  55 E5        30.07S
MERRILL        CLOUDY    54  34  47 E9G17     30.09S
$$

WIZ029-030-035-036-043>047-010200-
CENTRAL WISCONSIN

CITY           SKY/WX    TMP DP  RH WIND       PRES   REMARKS
WAUSAU         CLOUDY    53  33  46 E9        30.06F
MOSINEE        NOT AVBL
MARSHFIELD     CLOUDY    50  31  48 E9        30.05F
STEVENS POINT  DRIZZLE   48  31  52 E16G30    30.08S
WAUPACA        LGT RAIN  50  33  52 NE8       30.09S
WAUTOMA        LGT RAIN  45  40  82 NE9       30.06
WISC RAPIDS    LGT RAIN  48  32  53 E17G25    30.07F
CAMP DOUGLAS   LGT RAIN  43  43 100 NE10      30.05S
$$

WIZ011>013-019>022-031-037>040-048>050-010200-
NORTHEAST WISCONSIN

CITY           SKY/WX    TMP DP  RH WIND       PRES   REMARKS
ANTIGO         MOCLDY    49  34  54 E10       30.10S
SHAWANO        CLOUDY    53  36  52 E7        30.10S
OCONTO         CLOUDY    50  34  54 NE7       30.10S
STURGEON BAY   CLOUDY    48  28  46 N9        30.13R
GREEN BAY      CLOUDY    49  32  52 NE18      30.09R
MANITOWOC      LGT RAIN  48  31  51 NE9G17    30.07S
APPLETON       LGT RAIN  48  34  57 NE7       30.06S
CLINTONVILLE   CLOUDY    50  28  43 E10       30.08F
OSHKOSH        LGT RAIN  48  37  65 NE10      30.07R
$$

WIZ032>034-041-042-053>061-010200-
SOUTHWEST WISCONSIN

CITY           SKY/WX    TMP DP  RH WIND       PRES   REMARKS
LA CROSSE      LGT RAIN  46  38  73 E10G21    30.03F
SPARTA         LGT RAIN  44  37  77 E13       30.05S
VIROQUA        CLOUDY    43  41  95 NE17      30.00S
BOSCOBEL       LGT RAIN  46  45  96 E9        30.00S FOG
PRAIRIE DU CHI LGT RAIN  44  40  86 NE7       30.00R
PLATTEVILLE    CLOUDY    44  42  91 NE17G24   29.96S
$$

WIZ056-057-062-063-064-067-068-010200-
SOUTH CENTRAL WISCONSIN

CITY           SKY/WX    TMP DP  RH WIND       PRES   REMARKS
REEDSBURG      DRIZZLE   43  42  97 NE6       30.02S
BARABOO/DELLS  DRIZZLE   43  41  92 NE10      30.02S
LONE ROCK      CLOUDY    45  40  82 E12       30.00S
MINERAL POINT  CLOUDY    43  43 100 NE15      29.97R
MADISON        LGT RAIN  43  40  89 NE22G31   29.99F
MIDDLETON      CLOUDY    45  41  88 E18G24    29.99S
WATERTOWN      RAIN      42  42 100 N8        30.05R
MONROE         CLOUDY    43  41  93 NE21      29.95R
JANESVILLE     LGT RAIN  45  43  93 NE18G24   29.94F FOG
$$

WIZ051-052-058>065-066-070>072-010200-
SOUTHEAST WISCONSIN

CITY           SKY/WX    TMP DP  RH WIND       PRES   REMARKS
MILWAUKEE      LGT RAIN  42  39  89 NE15      30.00F
WAUKESHA       RAIN      39  39 100 N9G17     30.02S FOG     WCI  33
MILWAUKEE/TIMM RAIN      41  37  87 NE12      30.02F
RACINE         LGT RAIN  43  40  89 NE15      30.00F
BURLINGTON     LGT RAIN  41  40  97 N12       29.99R
KENOSHA        CLOUDY    43  41  93 NE15      29.96F
FOND DU LAC    LGT RAIN  46  37  71 NE10      30.06R
SHEBOYGAN      LGT RAIN  43  36  76 NE12      30.06R
WEST BEND      RAIN      41  37  87 NE9       30.05R
JUNEAU         RAIN      43  40  89 N9G16     30.06R
$$

LSZ147-162-010200-
LAKE SUPERIOR

STATION/POSITION TIME  TEMP    WIND        PRES    WAVE
                       AIR SEA DIR/SP/G            HT/PER
                 (UTC) (F)     (DEG/KT/KT) (MB)    (FT/S)
W MID LAKE BUOY  0050   39 37   40/  6/  8 1025.1R   2/ 4
DEVILS ISLAND    0000   40      60/ 17/ 19 1024.7S
PORT WING        0000   40      30/ 14/ 17 1023.7
SAXON HARBOR     0000   41      40/ 18/ 21 1022.4S
$$

LMZ867-665-643>646-010200-
LAKE MICHIGAN

STATION/POSITION TIME  TEMP    WIND        PRES    WAVE
                       AIR SEA DIR/SP/G            HT/PER
                 (UTC) (F)     (DEG/KT/KT) (MB)    (FT/S)
CHAMBERS ISLAND  0000   45     360/ 17/ 20 1019.3R
N MID LAKE BUOY  0050   42 39   10/ 14/ 16 1019.5R   1/ 3
NORTHPORT PIER   0000   46      10/ 10/ 14 1019.0R
ALGOMA LAKESHORE 0045           20/ 16/ 21   N/A
KEWAUNEE LAKESHO 0000   44                 1017.6
SHEBOYGAN LAKESH 0100   42      30/ 14/ 16 1018.5R
PORT WASHINGTON  0000   43      20/  8/ 14 1018.3
S MID LAKE BUOY  0050   42 40   30/ 10/ 12 1015.8R   1/ 3
KENOSHA   LAKESH 0100   43      30/ 21/ 23 1014.6F
$$

TC  - TEMPERATURE IN CELSIUS
VSB - VISIBILITY IN STATUTE MILES
WCI - WIND CHILL INDEX
HX  - HEAT INDEX




USA.gov is the U.S. government's official web portal to all federal, state and local government web resources and services.